Location: Gwatt
(46.7204°N, 7.6223°E)
Time: 12:44:58
(UTC+00:00)

Lacrosse 5 rocket - Visible Passes

Search period start: 16 January 2021 00:00
Search period end: 26 January 2021 00:00
Orbit: 460 x 635 km, 57.0° (Epoch: 15 January)

Date Brightness Start Highest point End Pass type
(mag) Time Alt. Az. Time Alt. Az. Time Alt. Az.
16 Jan 4.1 04:04:26 12° NE 04:04:26 12° NE 04:04:54 10° NE visible
16 Jan 2.7 05:40:04 16° NNW 05:42:16 27° NNE 05:45:31 10° E visible
17 Jan 4.2 03:58:44 12° NE 03:58:44 12° NE 03:59:08 10° NE visible
17 Jan 2.5 05:34:22 19° NNW 05:36:27 30° NNE 05:39:49 10° E visible
18 Jan 4.3 03:53:03 12° NE 03:53:03 12° NE 03:53:24 10° NE visible
18 Jan 2.3 05:28:41 22° NNW 05:30:37 35° NNE 05:34:06 10° E visible
19 Jan 4.3 03:47:25 11° NE 03:47:25 11° NE 03:47:42 10° NE visible
19 Jan 2.0 05:23:02 26° NNW 05:24:46 42° NNE 05:28:21 10° ESE visible
20 Jan 4.4 03:41:48 11° ENE 03:41:48 11° ENE 03:42:01 10° ENE visible
20 Jan 1.7 05:17:26 32° NNW 05:18:53 52° NNE 05:22:33 10° ESE visible
21 Jan 4.5 03:36:15 10° ENE 03:36:15 10° ENE 03:36:20 10° ENE visible
21 Jan 1.3 05:11:53 42° NNW 05:13:00 65° NE 05:16:43 10° ESE visible
22 Jan 1.0 05:06:23 58° NW 05:07:05 83° NE 05:10:49 10° SE visible
23 Jan 0.9 05:00:58 74° WSW 05:01:08 77° SW 05:04:51 10° SE visible
24 Jan 1.4 04:55:38 53° S 04:55:38 53° S 04:58:50 10° SE visible
25 Jan 2.3 04:50:23 32° S 04:50:23 32° S 04:52:44 10° SSE visible
